Wind_Speed
14 13 12 12 12 12 14 15 16 17 18 18 18 20 20 20 21 21 21 21 21 20 20 19 19 19 19 19 19 19 18 17 17 16 16 15 15 14 14 14 13 12 12 11 11 11 11 11 11 11 11 11 11 11 10 10 9 9 9 9 9 9 8 8 8 8 9 9 10 11 12 12 13 14 15 16 17 17 17 18 19 17 15 14 14
14 14 13 12 12 12 14 15 16 16 17 18 18 19 20 20 20 20 20 20 20 20 19 18 18 18 18 18 18 17 17 16 16 15 15 14 13 13 13 12 11 10 10 9 9 10 10 9 9 9 9 9 9 9 8 7 7 7 7 6 6 6 6 5 5 5 6 6 7 8 9 11 12 12 13 14 16 17 17 17 19 19 18 16 15
14 13 13 12 12 12 14 14 15 16 17 18 19 19 20 19 19 20 20 20 20 20 19 18 18 18 18 17 17 17 16 15 15 14 14 13 12 12 12 11 10 8 8 7 7 7 8 7 6 6 6 6 6 6 5 5 5 5 4 4 3 3 3 2 2 2 2 3 4 6 6 8 10 11 11 12 13 15 16 17 18 18 18 17 16
14 13 13 13 13 12 13 13 13 15 16 18 19 19 20 20 19 19 19 19 20 19 19 19 18 18 17 17 17 17 16 15 14 13 13 12 11 11 10 10 9 7 6 5 5 5 5 5 5 4 4 4 4 4 3 3 3 3 2 2 2 2 2 2 1 1 1 1 1 3 4 5 7 9 9 10 11 13 15 16 17 17 17 18 18
14 13 13 13 13 13 13 12 12 14 15 17 18 19 20 20 19 19 19 19 19 19 19 19 18 18 18 17 16 16 16 15 14 13 12 11 11 9 9 8 7 6 5 4 3 3 3 3 3 2 2 1 2 2 1 1 1 2 2 3 4 4 4 4 4 4 3 3 2 1 2 3 5 7 9 8 9 10 13 15 16 16 17 17 18
14 13 13 13 13 13 13 13 12 13 14 15 17 19 20 21 20 19 19 19 19 18 18 18 18 18 18 17 16 16 15 14 13 12 12 11 10 9 8 7 6 5 4 3 2 2 2 2 1 0 1 2 2 3 4 5 5 4 5 5 7 7 7 7 8 7 6 6 4 4 3 3 4 6 8 8 8 8 10 13 15 15 16 16 17
13 12 12 13 12 12 12 12 12 13 14 14 15 17 20 21 20 19 19 19 19 19 18 18 18 18 17 17 16 15 15 14 13 12 12 11 10 9 8 7 6 5 4 3 3 2 2 1 1 2 3 4 5 6 7 8 7 7 6 7 8 9 9 9 10 10 9 9 7 7 6 6 6 6 7 8 8 7 8 10 13 14 14 15 16
14 13 12 12 11 11 11 11 11 12 14 14 15 16 19 20 20 20 20 20 20 19 19 18 17 17 16 16 15 14 14 13 13 12 12 11 10 9 8 8 7 5 5 5 4 4 3 3 3 4 5 7 8 8 9 9 8 7 6 7 8 10 10 9 10 11 10 10 9 11 10 9 9 8 7 8 9 8 7 8 11 13 13 14 15
14 14 13 13 12 11 11 11 12 12 13 14 15 16 17 19 20 20 20 20 20 20 20 19 18 17 16 15 15 14 14 13 13 12 12 11 10 10 9 8 7 6 6 6 6 5 5 5 6 7 9 9 10 9 9 9 8 7 7 7 8 10 12 9 9 10 8 9 10 13 14 13 11 10 9 9 9 9 8 8 8 10 12 14 15
14 14 13 13 12 12 13 14 14 14 14 15 16 15 15 17 19 20 20 20 21 21 20 19 18 18 17 16 15 14 14 13 12 12 12 11 11 10 10 9 8 8 8 8 7 7 6 7 9 11 11 11 10 9 9 9 8 8 7 8 8 11 12 8 7 9 6 8 10 12 15 14 13 12 11 10 10 10 9 9 9 8 9 12 14
13 13 13 13 12 12 13 14 15 15 15 15 15 15 15 17 18 18 20 21 21 21 21 20 20 19 18 17 16 15 14 13 13 13 12 12 11 11 11 9 9 9 9 9 8 8 8 9 11 14 13 12 10 9 9 9 8 8 7 7 8 10 12 8 2 4 6 6 9 12 14 15 14 14 14 12 11 11 11 10 10 10 9 10 12
14 13 11 11 10 11 12 13 14 13 14 15 15 16 16 16 14 15 18 20 21 20 19 20 21 20 19 18 17 16 15 15 15 14 13 13 12 11 11 10 10 10 10 10 10 10 11 12 14 15 13 11 9 9 9 8 8 8 7 6 7 8 12 10 0 1 3 3 7 13 13 12 13 15 17 15 14 13 12 11 11 11 10 10 10
14 12 9 8 9 10 11 11 10 10 12 14 13 15 15 14 12 13 16 18 20 20 18 18 19 17 16 16 15 15 15 16 17 16 15 15 14 12 12 11 12 11 11 11 12 12 13 14 14 13 10 9 8 9 9 8 8 8 7 6 6 7 10 13 5 2 1 1 5 11 10 8 10 15 19 18 16 15 14 13 13 12 12 12 11
12 11 8 7 8 9 10 9 8 8 11 12 12 13 14 13 12 13 14 16 18 18 17 17 15 13 13 13 12 12 12 14 15 15 15 15 15 14 13 13 13 13 12 13 13 13 13 13 11 9 7 7 8 9 9 9 9 8 8 7 7 7 8 12 11 7 2 2 4 8 8 6 9 13 17 18 17 17 16 16 15 14 13 13 12
11 12 8 7 8 9 9 8 7 9 11 12 12 13 13 13 14 14 14 14 16 16 15 14 12 10 10 11 10 9 9 10 11 12 13 13 13 13 14 14 14 13 12 13 12 12 11 9 6 6 6 7 8 8 9 10 10 10 10 9 9 9 9 10 13 12 6 4 6 9 8 7 9 12 16 17 16 18 18 18 17 16 16 15 14
12 12 9 7 9 9 8 8 8 9 10 11 12 12 12 13 13 13 13 13 14 14 12 12 11 10 10 9 9 8 8 8 8 9 10 11 11 11 12 12 11 10 9 9 7 7 6 4 4 5 6 7 8 9 10 11 12 12 12 12 12 11 10 10 11 12 7 5 7 9 9 7 9 12 14 15 15 16 18 18 19 18 18 17 16
12 11 10 9 9 9 9 8 9 10 10 11 11 11 11 10 10 10 10 11 13 13 11 12 11 10 10 9 9 9 8 7 6 7 7 8 7 7 7 7 6 4 3 3 3 4 3 2 4 6 7 8 9 10 12 12 13 13 13 13 12 12 10 10 10 8 6 5 6 8 10 9 10 12 12 14 14 15 17 18 19 20 20 19 19
12 11 10 9 11 11 10 9 9 11 10 11 12 11 11 10 10 10 9 11 12 11 11 10 8 8 8 8 9 9 7 6 6 6 5 5 5 5 4 4 3 3 3 3 3 2 1 4 6 7 7 8 10 11 12 13 14 14 13 13 11 10 9 8 7 5 5 5 6 9 12 11 10 12 12 13 13 14 16 17 19 20 21 21 20
12 11 10 9 10 11 12 10 10 11 10 11 12 12 12 12 12 12 12 12 12 11 10 8 6 7 7 7 8 8 7 6 6 5 6 6 6 6 6 5 6 7 5 3 2 1 4 6 7 7 7 9 11 11 12 13 13 13 13 12 10 9 8 7 5 5 5 5 5 7 10 10 10 11 12 12 13 14 15 16 17 19 21 22 22
13 10 10 9 9 11 12 10 10 10 10 11 13 13 14 13 12 14 16 14 12 10 9 8 7 8 8 9 9 9 8 7 8 7 8 9 9 9 8 7 8 7 5 2 2 6 7 8 7 6 7 8 9 11 11 12 11 11 11 12 11 9 8 7 5 5 4 5 5 4 5 8 10 10 11 12 12 13 14 14 15 16 18 20 23
13 11 9 9 9 10 12 9 9 9 9 10 11 12 14 12 10 15 18 15 13 11 9 9 9 9 10 10 10 10 9 10 10 10 11 11 11 10 9 8 8 6 4 3 6 8 8 7 6 6 7 8 9 11 11 11 10 10 11 12 12 10 9 8 7 6 4 5 5 3 5 7 9 9 10 11 11 12 12 13 13 14 15 17 20
13 11 10 10 9 10 11 10 9 9 9 9 10 10 11 12 13 17 19 17 14 11 9 11 11 10 11 11 11 11 11 12 11 11 11 12 12 11 9 8 7 6 4 5 7 8 7 6 5 5 6 7 9 12 12 11 10 9 10 11 12 11 9 9 8 7 5 5 5 3 5 7 7 8 10 11 12 13 13 13 14 14 15 16 17
11 10 11 11 9 9 10 10 10 10 9 9 11 12 10 12 16 17 16 16 15 11 10 11 12 11 12 12 12 12 12 12 12 12 12 12 11 10 8 7 7 6 5 5 5 6 6 6 5 5 6 8 10 11 12 12 9 9 10 11 11 11 10 9 8 7 6 6 5 4 5 6 7 8 9 11 13 14 15 16 16 16 17 17 17
11 10 12 11 9 9 9 10 10 9 10 12 14 14 12 14 18 17 14 15 14 12 11 12 13 13 12 12 12 12 12 12 12 12 12 11 11 9 8 7 7 6 5 4 4 5 5 5 6 6 7 9 10 10 11 12 11 10 10 11 11 11 10 8 7 7 6 5 6 6 5 5 7 9 10 11 13 14 16 17 18 18 18 18 19
11 11 12 11 10 9 8 9 10 11 12 14 16 16 15 16 17 16 15 14 13 12 12 12 12 12 12 12 12 12 12 12 12 12 11 10 10 9 7 6 6 5 5 4 3 5 5 5 6 6 8 10 10 10 11 12 13 11 10 11 10 10 10 8 7 8 8 5 5 7 5 5 6 8 10 10 11 13 14 15 16 18 19 19 20
11 11 11 11 10 9 9 8 9 12 15 14 15 17 16 17 16 16 15 13 13 12 12 11 11 12 12 12 12 12 12 12 12 11 11 10 8 7 6 5 5 4 4 4 3 4 5 5 7 7 7 9 10 11 12 12 13 13 11 11 11 11 11 9 8 9 11 8 5 6 5 6 7 7 9 10 11 12 12 11 12 15 17 19 20
10 10 10 10 10 10 10 9 10 13 17 16 14 15 16 18 17 16 15 13 14 14 13 12 12 12 13 14 14 14 14 14 12 11 10 9 7 6 6 4 4 3 3 3 3 4 6 5 6 7 7 8 9 11 13 12 13 14 13 12 12 12 11 10 9 9 11 12 8 4 5 7 7 7 9 10 11 11 11 10 10 12 14 17 20
11 10 10 10 10 10 10 10 11 12 15 16 15 14 14 16 16 15 14 14 14 14 14 14 13 14 14 15 16 15 15 15 12 11 10 8 7 7 6 4 3 3 2 3 3 4 4 3 4 5 6 8 9 11 12 13 14 14 15 14 12 12 12 12 12 11 11 13 12 8 7 9 8 7 9 10 9 9 10 11 12 12 13 16 19
11 11 10 11 11 11 12 11 12 12 12 14 14 14 14 15 15 13 14 13 13 15 15 15 15 16 16 16 17 15 14 14 12 10 9 7 7 7 6 4 2 1 2 2 2 2 2 2 3 5 7 8 9 11 11 12 13 12 14 15 14 14 13 13 13 11 10 12 13 12 11 11 9 8 8 7 7 8 11 13 13 13 12 14 17
12 11 11 11 11 12 13 13 13 13 11 11 12 14 16 16 15 14 14 13 14 16 16 16 15 15 16 16 16 14 13 13 11 9 8 6 5 5 4 3 1 2 2 3 3 2 3 4 5 7 9 9 9 9 9 10 11 12 14 14 13 14 12 11 12 11 10 11 12 13 13 13 12 11 9 6 6 8 10 12 13 14 13 13 15
12 12 12 11 12 14 15 15 14 14 12 12 12 13 16 16 16 16 15 14 15 16 15 14 14 14 15 16 17 16 15 13 11 8 8 7 6 5 4 3 3 2 3 5 4 3 3 5 7 8 9 9 9 8 10 10 10 12 14 12 12 13 11 10 10 10 9 10 10 11 13 13 14 14 11 6 6 7 9 10 11 13 14 14 15
13 12 12 12 13 14 16 17 17 16 14 13 12 12 12 13 14 16 16 16 16 17 16 16 17 16 16 17 18 18 15 12 11 10 9 9 8 7 6 5 5 4 3 5 6 5 4 5 8 8 8 9 10 10 11 11 10 10 12 12 12 12 11 9 9 8 8 9 9 10 10 9 11 12 11 8 7 8 10 11 11 13 15 15 15
13 12 12 12 13 15 16 18 17 17 16 14 14 13 12 12 12 13 14 15 16 17 16 15 15 15 15 15 15 14 11 9 12 12 10 11 10 8 8 7 7 5 3 4 5 7 7 7 8 9 10 10 10 11 11 10 10 10 11 12 12 12 11 10 9 8 8 8 7 7 5 3 6 9 9 8 7 9 10 12 13 13 14 14 15
13 12 12 11 12 16 18 17 17 17 16 15 15 14 14 13 13 13 13 14 14 13 13 13 12 13 14 15 14 14 12 10 12 12 11 12 11 10 10 8 7 6 4 4 4 5 6 8 9 10 12 12 10 10 9 8 8 9 11 12 13 12 12 12 12 12 9 7 5 4 5 4 3 5 6 6 6 8 10 11 10 8 11 13 13
13 13 12 11 11 16 17 16 17 16 16 15 15 15 14 14 14 14 14 14 13 13 14 14 14 14 15 15 16 17 16 14 12 13 13 13 12 11 10 9 8 7 5 4 4 5 5 7 8 7 8 11 11 9 7 7 9 10 11 13 12 13 13 12 12 12 7 4 3 3 5 3 3 3 4 4 4 6 8 9 5 4 8 12 12
13 13 13 13 13 14 16 16 15 15 15 15 15 15 14 14 14 13 14 14 14 14 15 14 15 15 15 15 17 18 17 16 14 13 14 14 13 11 10 10 9 7 5 5 5 6 6 6 5 4 4 7 11 12 8 7 8 9 11 13 12 13 13 12 11 10 5 3 3 2 2 1 3 3 3 3 3 4 6 7 4 3 5 8 12
15 14 13 15 15 14 15 15 15 15 15 15 15 15 15 14 14 13 13 14 15 15 15 14 15 15 15 16 17 18 18 17 16 15 14 15 14 12 11 10 9 8 6 6 6 7 7 5 4 4 3 4 8 12 10 6 7 8 9 9 9 12 13 11 12 10 6 5 6 5 3 2 2 2 2 3 2 2 3 4 4 4 4 7 10
15 16 14 15 16 15 15 14 15 15 15 15 15 15 15 14 14 14 13 15 15 16 15 15 15 15 16 17 17 19 19 18 17 16 16 15 15 13 12 10 8 8 7 7 8 8 8 6 5 4 4 4 5 10 11 7 7 7 8 9 9 11 13 11 12 11 8 7 8 8 7 6 5 4 3 3 2 1 2 3 4 4 4 7 8
15 16 16 15 16 16 17 15 15 16 16 16 15 15 15 14 14 14 14 15 15 15 15 15 14 15 16 16 18 19 19 19 18 17 17 17 16 15 14 12 10 9 9 9 10 10 8 7 6 4 5 5 4 8 11 9 7 6 9 13 11 10 12 11 12 12 10 9 8 10 10 9 9 7 5 3 2 2 1 1 2 3 4 5 6
15 17 16 16 18 18 19 16 16 17 16 16 15 15 15 15 15 14 14 14 14 14 13 14 15 15 16 16 17 18 18 19 19 19 19 18 17 17 16 15 13 12 11 11 11 10 9 6 6 5 5 6 6 7 10 11 10 9 12 14 11 9 10 13 14 14 12 10 9 11 11 9 10 9 4 2 1 1 2 2 2 3 3 4 5
16 17 16 17 18 18 20 18 17 16 16 16 15 15 15 15 15 14 14 14 14 14 13 14 15 16 17 16 16 17 17 17 18 18 19 19 19 18 18 16 15 13 12 12 12 10 9 8 7 7 6 7 6 7 9 9 11 12 11 11 10 8 9 12 14 14 12 12 11 12 11 8 8 7 3 2 2 3 3 3 4 2 3 3 4
17 17 15 17 17 17 19 19 18 16 16 16 15 15 15 14 14 14 15 14 15 15 14 14 14 15 18 15 14 16 16 16 16 17 18 19 19 19 19 17 16 15 13 13 12 10 9 9 8 7 8 7 6 7 8 7 8 10 9 9 9 8 8 10 11 11 12 12 11 11 11 8 7 6 4 3 4 4 3 4 4 4 3 4 4
16 17 16 17 17 17 18 19 19 17 16 16 15 15 15 15 15 15 15 15 15 15 15 15 14 16 17 15 15 15 14 14 15 16 17 17 18 18 17 17 16 14 13 13 12 11 10 10 9 9 8 7 6 7 8 5 7 9 9 9 8 7 7 9 9 10 11 11 10 10 10 8 7 7 6 5 5 4 4 4 4 4 4 4 4
16 17 18 18 18 18 18 19 19 17 17 16 15 15 15 15 16 16 17 16 16 16 16 15 15 16 16 14 15 15 14 14 14 15 16 16 16 16 16 16 15 13 13 13 12 10 10 10 10 10 8 8 7 7 8 6 6 8 8 9 8 6 7 9 9 9 9 9 9 11 11 9 9 9 8 7 6 5 5 5 4 3 4 3 3
17 18 18 18 18 18 18 19 19 18 17 16 15 16 16 16 16 17 17 16 16 16 16 15 15 15 15 13 14 14 14 14 14 14 15 16 16 16 15 15 15 14 13 13 12 11 11 10 10 10 9 8 8 7 7 8 6 6 6 6 7 7 7 8 8 8 8 8 9 11 12 11 10 10 9 8 7 6 6 6 5 4 4 3 4
18 18 18 18 18 18 18 18 18 18 17 16 16 16 16 16 16 16 16 16 16 14 14 14 14 15 15 14 13 13 14 14 14 14 15 15 16 15 15 15 14 14 14 13 12 11 11 10 10 10 9 8 8 6 7 9 7 6 6 5 5 5 5 6 6 6 7 8 9 9 11 11 11 10 10 8 7 6 6 7 6 5 4 4 3
19 19 19 19 19 19 19 19 18 18 18 17 17 17 17 16 16 16 16 16 16 15 14 13 14 15 15 16 15 14 14 14 14 14 15 15 15 14 14 14 14 13 13 13 12 12 11 11 11 10 9 8 8 6 7 9 8 6 6 5 4 3 3 4 5 6 7 7 8 9 11 11 11 11 11 9 6 6 7 8 6 5 4 4 3
20 20 20 20 21 20 20 20 19 19 19 19 19 18 18 17 16 16 16 15 16 16 15 15 15 16 16 16 16 15 15 15 15 15 16 16 15 14 13 13 13 13 13 13 12 12 12 13 12 10 9 9 9 8 8 9 8 7 6 6 5 4 3 4 4 5 6 6 7 8 9 11 11 11 11 10 8 7 8 8 6 4 4 4 4
21 21 22 21 21 21 21 21 20 19 19 19 19 19 18 18 17 16 15 15 15 16 16 16 17 16 15 16 16 16 16 16 16 16 16 16 16 15 14 14 14 13 14 14 13 13 13 13 12 11 11 12 11 9 9 9 9 8 6 6 6 5 4 4 3 4 4 5 7 7 8 11 12 10 10 10 9 8 9 9 6 4 5 5 5
24 23 23 22 20 20 21 21 20 19 19 19 19 18 18 18 17 16 16 15 16 17 16 16 16 15 15 16 16 16 17 16 15 16 16 16 16 16 15 15 15 15 15 14 14 14 13 13 13 12 13 13 11 11 10 9 9 9 7 6 5 6 6 5 3 2 2 4 5 6 8 11 10 10 11 9 8 8 8 8 7 6 7 7 6
25 23 22 22 21 21 20 20 20 19 19 19 18 18 18 18 17 17 16 16 17 17 16 15 15 15 15 16 16 16 18 17 15 15 16 16 16 16 15 15 15 15 15 15 15 15 14 13 13 13 12 13 12 12 11 10 9 9 9 8 6 7 7 6 5 1 3 4 4 5 6 8 8 9 10 8 8 8 8 7 7 7 7 7 6
Wind_Direction
138 140 134 129 127 134 141 146 150 154 158 161 161 160 161 160 156 153 155 155 155 154 153 151 149 150 149 150 148 147 148 149 147 143 142 140 138 134 129 125 122 120 117 114 110 107 104 101 98 97 98 98 99 100 100 100 98 96 93 89 89 86 83 81 78 77 78 78 79 81 80 76 72 73 77 80 82 83 85 89 90 92 99 112 123
139 140 135 132 132 136 140 145 149 151 156 162 165 164 163 162 159 157 158 158 159 159 159 157 155 154 154 154 153 152 153 155 152 149 148 146 143 137 133 129 126 124 121 117 112 108 102 97 95 97 98 100 102 103 103 102 100 97 91 87 83 79 77 74 72 77 82 82 82 82 84 83 78 75 74 77 80 83 84 87 90 90 92 102 114
142 140 137 137 137 139 142 146 150 151 154 160 166 167 166 166 163 161 161 161 163 164 165 164 161 159 158 158 158 157 159 161 158 156 154 152 148 143 140 135 133 131 126 120 116 110 104 99 95 95 95 97 99 101 101 96 94 87 79 75 60 60 61 55 58 62 75 85 91 90 89 90 88 84 77 76 79 83 84 85 88 91 93 97 108
143 142 141 142 141 142 143 145 151 153 155 159 166 168 169 170 168 166 165 166 167 169 170 170 168 165 163 163 163 162 165 166 164 162 160 158 155 152 148 143 143 142 136 128 122 112 106 105 102 96 91 93 91 89 85 79 78 63 53 34 358 346 341 323 293 300 303 318 97 110 104 100 99 96 88 81 81 83 85 87 88 91 95 98 104
146 147 146 147 145 143 144 146 151 155 158 161 168 171 172 173 171 169 169 170 171 173 175 175 175 173 170 170 169 167 168 168 168 166 165 165 162 163 160 157 157 155 150 145 141 127 115 112 104 89 78 67 59 44 7 352 346 341 330 312 305 299 298 290 281 277 275 280 272 207 144 128 120 114 105 95 89 88 88 89 90 92 96 100 104
153 153 149 150 149 146 149 150 153 158 161 165 171 173 174 176 175 173 172 173 175 177 179 180 180 181 179 178 179 177 174 174 174 173 174 175 174 176 177 178 175 173 173 176 185 176 155 134 130 166 315 317 331 327 317 310 306 303 299 295 289 284 280 276 273 267 258 255 247 241 228 195 163 140 125 114 103 96 94 94 94 94 96 101 106
158 157 151 151 152 150 152 153 157 160 160 164 173 176 177 179 179 178 176 176 178 181 183 184 186 187 187 186 186 186 184 184 184 184 184 187 190 191 194 199 198 197 201 212 221 227 225 216 237 267 290 301 311 315 313 306 303 301 298 295 289 284 276 269 267 264 259 256 245 231 226 218 198 171 149 133 124 114 105 101 100 99 98 101 106
161 160 155 152 154 151 152 156 160 163 161 163 171 176 181 184 184 183 182 180 180 184 187 187 189 192 193 192 191 192 192 194 195 195 196 198 203 207 209 215 218 218 224 235 240 251 259 265 276 285 294 301 309 314 313 308 305 305 303 297 291 284 276 268 264 265 263 256 243 228 220 215 205 185 172 154 141 135 123 111 107 105 104 102 105
164 163 159 156 157 157 158 159 164 170 167 168 171 174 180 186 189 191 190 189 187 187 189 189 190 194 199 197 196 196 198 201 203 205 205 206 212 217 220 223 230 233 238 245 251 262 272 283 292 294 299 306 311 317 316 312 311 311 309 301 294 281 274 269 259 256 252 246 240 228 216 205 201 192 185 174 158 151 143 131 120 114 112 108 108
167 165 162 159 160 162 162 161 165 171 172 174 176 176 179 186 191 195 196 198 198 194 191 192 193 196 202 202 200 201 202 206 208 212 213 214 217 223 226 228 237 243 248 253 260 271 283 293 298 298 300 307 313 320 319 319 318 316 316 309 299 284 277 274 258 249 233 234 235 214 205 199 198 196 189 184 174 166 161 151 139 130 123 116 114
168 165 162 160 162 166 165 163 165 171 175 178 181 179 179 187 193 196 197 199 202 201 196 197 200 202 204 205 206 207 208 212 215 218 219 220 221 227 232 235 242 249 257 263 272 281 292 299 301 301 301 306 313 321 323 325 323 323 323 316 304 290 281 273 239 253 234 224 228 212 210 199 193 199 195 191 185 181 175 167 157 148 139 129 122
168 163 162 163 166 167 166 166 168 175 178 180 184 181 181 189 197 197 195 197 199 200 202 204 205 204 207 209 211 213 213 217 221 224 226 227 228 233 238 243 248 253 263 272 281 288 297 303 302 301 300 303 313 324 329 330 328 330 329 322 308 296 293 288 95 95 229 213 225 224 224 195 187 201 199 195 191 190 185 179 172 162 155 146 136
171 165 162 169 172 170 167 169 173 179 180 180 180 180 182 185 191 190 187 194 196 195 199 209 209 201 204 210 212 215 216 220 223 226 230 233 236 241 247 249 252 258 267 277 286 293 301 303 300 298 301 311 324 334 336 337 336 335 332 328 318 311 309 303 316 49 228 261 212 211 225 193 182 197 197 198 194 193 190 186 183 175 168 160 153
179 176 175 177 178 174 168 171 179 180 177 176 176 179 183 181 182 187 187 190 192 192 194 205 210 198 201 210 211 215 216 220 222 226 230 234 240 246 250 251 256 262 272 281 288 295 301 298 296 299 314 329 339 343 342 343 340 335 329 325 321 319 317 310 314 323 289 248 191 192 217 200 184 191 194 198 196 197 193 190 190 184 180 172 166
182 184 185 186 184 177 169 173 183 183 176 177 183 184 186 183 182 188 189 186 184 188 192 201 208 199 202 209 210 214 219 224 227 230 232 233 240 246 250 253 258 266 276 283 289 296 295 290 299 319 334 344 347 346 344 342 338 331 325 322 322 317 316 315 316 317 301 225 208 203 205 198 194 191 193 194 195 197 194 194 194 191 189 183 177
181 182 182 188 188 180 176 180 184 187 183 185 192 188 188 186 184 185 182 181 181 184 192 201 204 199 203 208 210 214 221 228 232 235 234 235 240 244 248 253 259 269 278 282 287 285 278 290 325 341 346 348 347 346 345 341 336 331 326 325 326 324 320 318 317 313 299 244 221 211 201 195 194 191 195 196 193 194 194 197 199 197 194 190 186
181 182 183 184 187 185 186 190 188 194 192 190 196 194 194 191 188 185 178 179 181 184 193 202 201 198 201 204 205 207 214 221 223 227 228 231 231 234 238 242 251 258 263 258 260 259 269 330 349 350 350 347 346 347 346 342 337 333 329 330 332 332 330 324 321 306 283 257 235 220 209 201 197 197 199 199 196 196 196 198 201 202 199 196 192
183 188 190 184 186 186 186 192 193 199 198 191 195 196 197 194 192 188 179 181 182 185 193 200 197 195 197 194 196 197 204 211 206 208 206 202 195 191 195 195 172 136 146 180 213 243 339 8 6 357 352 349 349 349 346 342 339 336 334 338 341 343 340 334 331 310 289 269 240 219 210 204 202 203 200 201 201 199 201 201 203 204 203 201 198
181 187 194 191 188 182 179 188 191 198 199 193 189 188 189 185 186 186 181 179 179 185 190 191 192 191 187 185 189 187 191 193 183 176 165 154 148 147 151 147 126 125 146 178 196 21 24 19 12 0 355 355 353 348 345 343 342 341 342 346 352 354 349 345 344 325 311 286 251 218 207 206 205 203 202 203 203 203 203 204 205 204 204 204 204
176 179 189 191 188 178 176 183 186 192 195 190 184 183 185 185 191 189 181 175 175 184 185 183 187 187 180 178 179 173 172 167 155 146 142 138 133 136 140 134 122 127 153 166 66 37 30 23 13 2 359 357 353 350 348 350 352 351 352 357 2 2 351 348 348 332 317 299 280 234 209 210 208 201 201 204 204 208 206 206 208 207 206 205 206
173 173 181 183 183 177 174 177 181 186 186 182 181 183 186 186 188 182 177 173 174 182 183 179 181 182 176 173 168 160 157 149 142 142 140 135 133 136 137 130 124 129 138 80 49 40 34 27 15 2 358 355 358 1 0 360 2 359 360 5 8 6 355 350 350 336 316 306 298 252 221 217 211 195 198 207 206 209 212 211 212 210 210 209 208
172 169 173 176 179 176 172 170 173 180 179 173 171 177 182 178 172 170 172 173 173 176 179 175 173 173 171 168 162 156 151 144 142 144 139 134 135 135 135 131 125 123 97 64 48 43 41 33 26 11 1 360 4 10 10 6 4 359 2 9 12 8 356 350 350 339 320 312 310 264 233 226 221 205 203 211 209 210 215 216 216 214 212 212 212
173 170 169 172 178 180 173 165 166 174 175 168 164 166 170 169 167 166 167 168 171 174 174 169 164 160 161 162 159 153 146 144 142 139 136 136 137 135 134 131 120 109 84 67 49 42 41 41 42 20 10 10 6 8 10 9 4 358 1 9 12 7 355 346 341 336 325 315 307 265 234 227 226 224 218 216 215 213 215 218 220 220 216 214 214
171 171 170 170 177 183 178 167 165 169 172 168 162 162 165 166 167 166 164 167 171 173 166 160 157 152 151 155 152 146 141 141 139 136 141 142 142 140 137 127 112 100 85 74 45 34 33 42 46 21 12 13 5 1 5 7 5 360 358 5 7 3 358 345 330 325 310 297 291 264 236 228 225 225 224 220 220 219 218 220 223 224 223 219 216
171 171 171 170 175 183 183 176 169 164 165 164 158 158 161 163 168 169 168 171 173 169 163 156 153 149 147 148 145 144 143 144 144 145 150 151 151 146 136 124 110 102 92 79 48 32 24 31 35 16 5 6 1 355 358 5 6 2 358 2 4 360 358 346 326 315 297 279 263 258 248 239 230 224 226 225 224 224 223 224 227 229 228 226 221
175 172 171 171 173 179 182 182 173 160 157 158 157 155 157 161 167 173 171 171 173 168 163 160 155 153 152 150 150 151 151 152 156 157 160 158 153 140 127 122 110 104 92 83 66 33 31 31 26 13 1 1 1 357 357 5 6 2 358 357 0 357 352 344 327 312 305 298 260 250 261 250 235 230 234 233 231 230 230 231 233 233 231 229 224
177 174 172 171 172 176 179 180 170 158 154 156 161 161 159 161 165 171 169 166 171 169 166 165 163 164 163 159 158 159 158 159 163 164 164 156 144 133 124 119 109 96 82 77 64 41 46 39 20 8 360 2 6 4 1 3 2 356 354 352 355 353 347 343 329 314 310 305 294 277 267 254 237 234 239 238 238 239 241 243 242 238 234 230 225
177 176 176 174 175 177 179 176 168 163 158 156 162 162 157 162 164 165 166 165 167 169 171 170 168 171 171 168 165 164 164 162 166 168 161 155 144 136 127 121 119 98 71 53 32 40 56 40 11 357 354 4 9 8 4 360 353 349 355 356 353 349 344 341 329 317 308 304 312 320 296 273 254 240 243 242 241 243 244 243 242 240 236 231 226
177 177 179 179 179 179 179 176 171 170 166 159 159 156 157 168 168 164 165 165 166 168 172 171 169 173 173 173 170 165 167 166 169 170 158 157 150 138 134 126 114 61 50 30 348 6 48 16 359 350 349 6 8 6 8 0 350 352 3 1 355 350 344 338 327 318 305 301 311 319 311 297 284 266 258 254 247 242 237 235 236 235 231 228 224
180 182 181 178 177 178 177 177 176 173 173 170 162 157 161 169 170 167 168 167 170 170 171 169 168 175 174 174 172 164 172 174 168 170 159 157 154 141 134 118 86 333 321 321 319 336 19 1 350 349 350 2 2 1 10 4 358 8 11 1 353 350 347 340 329 322 312 308 313 315 314 311 302 287 279 273 253 244 239 237 237 231 224 219 218
183 185 183 178 175 175 173 175 179 176 178 179 171 167 167 171 171 170 172 171 172 172 172 169 168 180 178 176 179 174 181 178 164 167 166 168 172 169 166 160 189 238 280 303 320 337 9 352 341 347 351 354 350 359 13 9 8 15 11 359 350 350 353 346 330 323 322 322 323 317 314 312 305 295 288 276 244 240 243 243 243 236 227 219 214
188 190 184 180 178 175 172 173 179 180 181 180 177 180 179 180 176 171 173 170 171 174 177 177 175 184 183 182 187 183 181 172 164 172 176 183 187 188 191 190 203 214 254 294 320 332 348 348 341 344 350 351 350 7 19 15 18 18 7 360 356 356 360 351 329 321 328 335 331 317 311 304 295 288 280 267 235 226 233 239 240 236 230 224 220
192 194 186 182 179 176 175 174 177 181 183 183 181 184 186 188 181 176 179 173 174 176 178 183 181 184 187 187 191 187 186 174 171 180 183 190 192 199 205 203 212 216 229 269 312 329 335 337 343 347 347 351 356 9 14 13 23 22 11 5 1 1 1 357 348 346 347 349 348 333 338 328 291 282 273 265 243 226 225 228 230 232 231 228 225
192 193 190 187 182 177 178 176 178 182 184 185 185 186 188 190 184 182 184 181 182 179 180 190 189 189 192 191 193 195 198 191 184 187 189 195 197 205 211 210 218 223 231 246 280 309 318 322 340 353 345 342 349 1 3 5 13 14 13 8 2 2 1 1 3 6 1 355 6 24 39 30 322 293 280 270 250 228 221 225 225 231 233 226 225
198 194 190 189 189 178 177 180 179 181 184 186 188 189 190 191 187 184 186 187 188 185 188 195 195 197 196 194 198 201 202 199 196 194 196 202 205 211 220 222 228 231 236 252 268 284 305 319 339 353 341 331 332 343 358 6 359 0 6 3 4 6 3 4 12 22 16 345 360 44 50 31 302 279 279 280 256 230 229 243 236 214 226 216 213
207 202 192 187 192 184 179 184 183 183 186 189 191 191 190 191 190 188 190 190 192 194 196 199 201 204 202 200 203 205 205 204 203 201 204 210 212 216 226 230 236 239 240 256 272 289 304 314 326 341 347 327 321 330 343 354 349 357 3 359 5 5 2 6 18 43 51 341 352 30 65 71 272 269 274 289 275 242 244 266 257 208 213 201 200
205 203 199 192 193 189 187 189 187 187 189 192 194 193 192 192 191 190 193 194 196 199 201 203 206 208 208 207 208 209 210 210 209 209 211 217 219 220 230 234 238 246 249 259 275 287 292 300 313 329 345 330 324 321 317 337 349 353 357 358 10 2 356 6 14 35 50 16 27 45 54 51 343 330 317 324 319 258 247 260 250 220 201 193 199
198 199 201 197 198 193 195 196 192 193 192 195 198 195 194 193 193 194 194 196 198 202 205 206 207 209 210 210 211 212 214 215 215 216 217 222 227 228 237 243 243 249 254 262 274 282 287 298 311 323 322 321 331 303 300 339 350 335 345 355 18 6 349 7 24 31 44 43 43 44 39 34 31 38 33 10 7 2 273 250 240 223 197 192 199
195 197 199 197 202 197 199 200 196 197 195 197 201 197 197 195 195 198 196 198 201 205 208 210 210 212 214 211 211 215 217 220 220 221 225 228 232 235 241 248 251 254 260 267 271 274 281 290 299 313 310 310 319 298 306 332 325 329 359 357 10 11 346 4 40 43 39 41 39 38 37 39 43 44 46 28 355 29 18 233 217 225 199 185 189
195 198 199 198 205 202 203 204 199 200 197 199 203 199 198 196 197 199 199 201 205 207 210 213 215 219 222 216 214 218 220 224 225 226 231 233 237 241 245 250 254 257 261 265 266 267 272 274 282 295 301 306 312 307 316 323 323 349 10 5 9 17 359 4 33 42 36 32 29 34 37 45 52 45 49 63 354 72 91 96 132 196 190 173 173
198 201 200 200 207 206 207 207 204 203 200 203 205 202 199 197 199 199 200 203 206 209 211 216 217 222 230 224 219 225 225 226 228 231 236 238 241 244 247 251 255 259 261 263 263 263 267 266 272 284 290 296 305 308 314 320 331 348 1 6 7 14 17 12 21 30 28 24 24 32 33 46 71 60 54 106 91 92 107 100 105 134 145 142 146
203 205 203 205 209 208 210 210 207 206 203 205 206 205 202 200 201 201 202 203 204 209 212 218 219 223 232 230 226 232 232 231 232 234 238 240 242 245 248 252 255 260 263 263 262 262 266 269 272 279 281 286 299 301 303 319 330 335 347 357 358 9 20 16 20 24 22 20 23 34 38 51 88 82 62 98 106 92 96 104 112 120 116 119 125
206 206 206 208 211 209 209 210 209 207 204 207 208 207 204 203 204 203 205 204 204 207 210 216 220 225 232 230 230 234 235 237 236 235 238 238 242 245 247 251 253 257 261 260 260 262 266 268 270 271 272 278 286 291 296 320 330 328 339 346 351 9 13 12 18 20 22 20 18 34 48 58 77 77 73 84 93 95 89 91 109 124 115 109 113
206 205 208 208 210 210 208 210 211 209 208 210 210 209 207 206 206 207 208 207 207 208 210 214 219 226 229 225 229 234 235 240 238 236 238 239 241 244 246 248 251 254 256 258 260 263 265 266 268 267 267 270 269 279 293 311 323 320 330 339 343 355 5 13 19 16 19 18 17 34 49 58 61 59 66 70 68 75 73 68 79 102 99 85 85
208 206 208 208 210 211 209 210 212 212 212 211 210 212 212 209 209 211 213 212 212 213 213 215 218 226 230 225 227 233 236 238 238 238 239 239 241 244 246 248 249 251 252 255 259 262 264 265 267 265 260 261 262 269 283 293 302 305 317 331 334 343 355 8 19 17 13 14 20 38 48 53 57 55 53 57 57 57 57 56 61 80 96 88 70
211 208 208 209 211 212 212 212 213 213 212 209 210 215 216 214 214 215 218 219 220 220 219 220 222 227 233 234 232 233 236 237 237 238 240 241 243 244 246 247 247 250 251 254 258 259 261 263 264 263 259 260 266 270 275 281 290 301 310 316 316 329 345 354 10 14 13 15 14 32 48 50 55 58 52 54 55 50 55 65 73 82 94 92 73
211 210 210 210 210 212 214 214 213 212 211 209 212 216 217 218 219 218 220 223 223 223 222 223 225 226 231 235 237 237 238 240 238 238 240 242 244 245 246 247 247 249 251 253 256 258 260 260 262 267 268 268 268 266 267 275 287 299 303 305 305 311 329 342 359 11 16 19 9 20 42 43 43 50 52 57 60 52 57 69 75 73 77 78 52
213 212 213 213 211 212 214 216 214 213 213 212 213 218 220 221 222 222 224 226 225 223 222 223 224 225 228 231 236 239 238 240 240 239 242 244 246 246 246 248 249 250 252 254 254 256 259 261 265 273 273 267 264 262 262 272 284 290 291 294 299 306 309 316 345 9 12 19 18 23 39 36 32 41 47 50 56 55 56 67 75 67 73 76 49
218 219 216 214 213 213 215 217 217 217 216 216 217 219 221 223 225 226 227 228 227 224 223 225 227 230 232 234 239 244 244 241 240 241 242 246 249 248 248 250 252 253 254 255 254 255 258 261 267 271 269 264 263 264 261 265 275 280 279 279 286 297 293 296 330 4 4 18 24 20 35 36 30 38 46 47 53 49 47 60 73 75 71 67 50
221 222 216 214 214 215 218 220 221 222 221 221 221 222 223 224 226 228 228 229 231 229 227 230 235 239 241 243 245 249 250 247 244 245 243 245 249 250 251 251 252 254 254 254 255 257 260 262 264 265 265 266 266 266 261 258 264 271 275 274 276 286 290 298 312 343 358 17 25 11 26 38 33 38 44 50 63 57 47 54 59 58 59 57 49
222 221 216 215 217 219 221 222 223 224 224 224 224 225 225 225 227 230 231 230 232 235 234 235 239 244 247 250 251 250 251 251 248 248 248 248 249 251 254 253 253 254 254 255 255 257 261 263 266 266 266 268 266 264 262 258 256 263 273 277 275 274 280 289 284 301 11 359 13 15 23 36 36 38 37 39 54 54 47 49 45 44 51 54 53
Height
3173 3174 3175 3175 3176 3177 3178 3179 3180 3182 3183 3184 3185 3187 3188 3189 3191 3192 3193 3194 3195 3197 3198 3199 3200 3201 3202 3202 3203 3204 3205 3206 3207 3207 3208 3209 3210 3210 3211 3212 3212 3213 3214 3215 3215 3216 3217 3218 3218 3219 3219 3219 3219 3220 3220 3221 3221 3221 3221 3221 3222 3222 3222 3222 3221 3221 3221 3221 3221 3221 3220 3220 3220 3219 3218 3218 3217 3217 3216 3216 3216 3216 3216 3216 3216
3173 3174 3175 3176 3176 3177 3179 3180 3181 3183 3183 3184 3186 3187 3188 3190 3191 3192 3194 3195 3197 3198 3199 3200 3201 3202 3202 3203 3204 3205 3206 3207 3207 3208 3209 3210 3211 3211 3212 3212 3213 3214 3214 3215 3216 3217 3218 3218 3219 3220 3220 3220 3220 3220 3221 3221 3221 3222 3222 3222 3223 3223 3223 3223 3222 3222 3222 3222 3222 3222 3221 3221 3221 3221 3220 3219 3219 3218 3218 3217 3217 3216 3217 3217 3217
3174 3174 3175 3176 3177 3178 3179 3180 3182 3183 3184 3185 3186 3187 3189 3190 3192 3193 3195 3196 3198 3199 3200 3201 3202 3203 3203 3204 3205 3206 3207 3208 3208 3209 3209 3210 3211 3212 3212 3213 3214 3214 3215 3216 3217 3218 3219 3219 3220 3220 3221 3221 3221 3221 3221 3222 3222 3222 3222 3223 3223 3224 3224 3223 3223 3222 3222 3222 3222 3223 3222 3222 3222 3222 3221 3221 3220 3219 3219 3219 3218 3218 3218 3218 3218
3175 3175 3175 3176 3177 3178 3179 3181 3182 3183 3184 3185 3187 3188 3189 3191 3193 3194 3196 3197 3198 3199 3201 3202 3203 3204 3204 3205 3206 3206 3207 3208 3209 3209 3210 3211 3212 3213 3213 3214 3214 3215 3216 3217 3218 3219 3219 3220 3220 3221 3221 3221 3221 3222 3222 3222 3222 3222 3222 3223 3224 3224 3224 3224 3224 3223 3223 3223 3223 3223 3223 3223 3223 3222 3222 3222 3221 3221 3220 3220 3219 3219 3219 3219 3219
3175 3176 3176 3177 3178 3179 3180 3181 3182 3183 3185 3186 3187 3189 3190 3192 3193 3195 3196 3198 3199 3200 3202 3203 3204 3204 3205 3206 3207 3207 3208 3209 3209 3210 3211 3212 3212 3213 3214 3214 3215 3215 3216 3217 3218 3219 3219 3220 3221 3221 3222 3222 3222 3222 3222 3222 3222 3222 3222 3223 3224 3224 3224 3224 3224 3224 3224 3224 3224 3224 3224 3224 3224 3223 3223 3223 3223 3222 3221 3221 3221 3221 3221 3221 3220
3175 3176 3177 3178 3178 3180 3181 3182 3183 3184 3185 3186 3188 3189 3191 3192 3193 3195 3196 3198 3199 3201 3202 3203 3204 3205 3206 3206 3207 3208 3209 3209 3210 3210 3211 3212 3213 3214 3214 3215 3215 3216 3217 3217 3218 3219 3220 3220 3221 3221 3222 3222 3222 3222 3222 3222 3222 3222 3222 3222 3223 3224 3224 3224 3223 3224 3224 3224 3224 3224 3224 3224 3224 3224 3224 3224 3224 3223 3222 3222 3222 3222 3222 3222 3222
3174 3176 3177 3177 3179 3180 3181 3183 3184 3185 3185 3187 3188 3189 3191 3192 3193 3195 3196 3198 3199 3201 3203 3204 3205 3206 3206 3207 3208 3209 3209 3210 3210 3210 3211 3212 3213 3214 3215 3215 3215 3216 3217 3218 3218 3219 3219 3220 3220 3221 3221 3222 3222 3222 3222 3222 3222 3221 3221 3221 3222 3222 3223 3223 3223 3223 3223 3223 3224 3224 3224 3224 3224 3224 3224 3224 3224 3224 3224 3223 3223 3223 3223 3223 3223
3175 3176 3176 3177 3178 3180 3181 3182 3184 3185 3186 3187 3188 3189 3190 3192 3193 3195 3196 3197 3199 3201 3202 3204 3205 3206 3207 3208 3208 3209 3209 3210 3210 3210 3211 3212 3213 3214 3215 3215 3215 3216 3217 3218 3218 3219 3219 3220 3220 3221 3221 3221 3221 3221 3221 3221 3221 3221 3220 3220 3220 3221 3222 3223 3222 3222 3222 3222 3223 3223 3223 3223 3224 3224 3224 3224 3225 3225 3225 3224 3224 3225 3225 3225 3225
3175 3176 3178 3178 3179 3180 3181 3182 3183 3184 3185 3186 3187 3189 3190 3192 3193 3195 3196 3197 3198 3200 3202 3204 3205 3206 3207 3208 3208 3209 3209 3209 3210 3210 3211 3212 3213 3214 3215 3215 3215 3216 3217 3218 3218 3219 3219 3219 3220 3220 3220 3221 3221 3221 3221 3221 3221 3220 3220 3219 3220 3219 3220 3223 3222 3221 3222 3221 3221 3222 3222 3223 3223 3223 3224 3225 3225 3226 3226 3226 3225 3225 3226 3226 3226
3175 3177 3178 3180 3180 3181 3182 3183 3184 3185 3186 3186 3188 3190 3191 3192 3194 3195 3196 3197 3198 3199 3201 3203 3205 3206 3207 3208 3208 3208 3209 3209 3210 3210 3211 3212 3213 3214 3214 3215 3215 3216 3217 3217 3218 3219 3219 3219 3219 3220 3220 3220 3220 3220 3220 3220 3220 3220 3219 3219 3219 3218 3218 3222 3222 3220 3221 3221 3221 3221 3221 3221 3223 3223 3224 3224 3225 3226 3227 3227 3226 3226 3226 3226 3227
3175 3176 3178 3179 3181 3182 3183 3184 3186 3186 3187 3187 3189 3191 3192 3192 3194 3195 3197 3198 3199 3200 3201 3203 3204 3205 3206 3207 3208 3208 3209 3209 3209 3210 3211 3211 3212 3213 3214 3215 3215 3216 3217 3217 3218 3219 3219 3219 3219 3219 3220 3220 3220 3220 3220 3220 3220 3219 3219 3218 3218 3217 3216 3220 3222 3220 3219 3221 3221 3221 3221 3220 3221 3223 3223 3224 3225 3225 3227 3227 3227 3227 3227 3227 3227
3174 3175 3177 3178 3180 3181 3182 3184 3186 3187 3187 3188 3189 3191 3192 3192 3194 3196 3197 3198 3199 3200 3202 3203 3204 3204 3206 3207 3207 3208 3208 3209 3209 3210 3211 3211 3212 3213 3214 3214 3215 3216 3217 3218 3218 3219 3218 3218 3219 3219 3219 3219 3219 3219 3220 3219 3219 3219 3219 3218 3218 3218 3215 3215 3221 3221 3218 3220 3221 3222 3222 3221 3220 3221 3222 3223 3224 3225 3226 3227 3227 3227 3227 3227 3227
3174 3175 3176 3177 3179 3181 3182 3183 3185 3186 3187 3188 3189 3191 3192 3192 3194 3195 3196 3197 3199 3200 3201 3203 3204 3203 3204 3206 3207 3208 3208 3208 3209 3210 3211 3211 3212 3213 3214 3214 3215 3216 3217 3218 3218 3218 3218 3218 3219 3219 3219 3219 3219 3219 3219 3219 3219 3219 3218 3219 3218 3219 3215 3211 3215 3219 3218 3218 3220 3221 3222 3220 3219 3220 3221 3222 3223 3224 3225 3226 3227 3227 3227 3228 3228
3174 3175 3176 3177 3179 3180 3181 3183 3184 3185 3186 3187 3188 3190 3191 3192 3193 3195 3196 3197 3198 3199 3201 3203 3205 3203 3204 3205 3206 3207 3207 3208 3208 3209 3210 3211 3212 3213 3214 3214 3215 3216 3217 3218 3218 3217 3217 3218 3219 3218 3218 3218 3219 3219 3219 3219 3219 3219 3218 3219 3218 3219 3217 3212 3211 3214 3217 3216 3217 3220 3221 3219 3219 3219 3220 3221 3222 3223 3224 3225 3226 3226 3227 3228 3228
3175 3176 3177 3177 3178 3180 3181 3182 3183 3184 3186 3187 3188 3189 3190 3192 3194 3195 3196 3197 3198 3199 3201 3202 3204 3204 3204 3205 3205 3206 3206 3207 3208 3209 3210 3210 3211 3213 3214 3214 3215 3216 3217 3218 3217 3217 3217 3218 3219 3218 3218 3218 3219 3219 3219 3219 3219 3219 3218 3218 3219 3218 3217 3214 3211 3211 3214 3215 3216 3218 3219 3218 3219 3219 3220 3221 3222 3222 3223 3224 3225 3226 3226 3227 3227
3176 3177 3177 3178 3178 3180 3181 3182 3183 3184 3185 3186 3188 3189 3190 3192 3194 3195 3195 3196 3197 3198 3200 3202 3203 3203 3203 3204 3205 3205 3205 3206 3207 3208 3209 3210 3211 3212 3213 3214 3215 3216 3217 3218 3217 3217 3218 3219 3219 3218 3218 3218 3218 3219 3219 3219 3219 3219 3218 3218 3218 3217 3216 3215 3213 3212 3212 3213 3215 3216 3217 3217 3218 3219 3220 3220 3221 3222 3223 3223 3224 3225 3226 3226 3227
3176 3177 3178 3179 3179 3181 3181 3182 3183 3183 3185 3186 3187 3188 3190 3191 3192 3194 3194 3195 3196 3198 3200 3201 3201 3202 3202 3203 3204 3204 3204 3205 3207 3208 3209 3210 3211 3212 3213 3214 3215 3217 3217 3217 3217 3217 3218 3219 3218 3218 3217 3218 3218 3219 3219 3219 3218 3218 3218 3218 3217 3217 3215 3214 3213 3213 3212 3212 3214 3215 3216 3217 3218 3218 3219 3219 3220 3221 3222 3223 3224 3225 3225 3225 3226
3176 3177 3178 3179 3181 3182 3182 3182 3183 3183 3185 3186 3187 3188 3189 3191 3192 3193 3194 3195 3196 3198 3199 3200 3201 3201 3202 3202 3203 3203 3204 3205 3206 3207 3208 3210 3211 3212 3213 3214 3215 3217 3217 3217 3217 3218 3219 3219 3218 3217 3217 3218 3218 3218 3218 3218 3218 3217 3217 3217 3217 3216 3215 3214 3213 3213 3213 3213 3214 3216 3216 3216 3217 3217 3218 3219 3219 3221 3222 3222 3223 3224 3224 3225 3225
3177 3177 3178 3179 3180 3182 3183 3183 3184 3184 3185 3187 3188 3189 3190 3192 3193 3194 3195 3195 3196 3198 3199 3199 3200 3200 3201 3202 3203 3203 3204 3205 3206 3207 3209 3210 3211 3213 3213 3214 3216 3217 3217 3218 3218 3218 3218 3218 3217 3217 3217 3218 3218 3218 3218 3218 3217 3217 3217 3217 3217 3216 3214 3213 3213 3213 3212 3212 3213 3215 3216 3216 3216 3216 3217 3218 3219 3220 3221 3222 3223 3223 3224 3224 3225
3178 3178 3178 3178 3179 3181 3182 3183 3184 3185 3185 3187 3188 3190 3191 3192 3193 3194 3195 3196 3197 3198 3198 3198 3199 3200 3201 3202 3202 3203 3204 3205 3207 3208 3209 3211 3212 3213 3214 3215 3216 3218 3218 3218 3219 3218 3218 3218 3217 3218 3218 3218 3218 3218 3218 3217 3217 3217 3217 3217 3216 3215 3214 3213 3213 3212 3212 3211 3211 3213 3213 3214 3216 3215 3215 3217 3217 3219 3220 3221 3222 3223 3223 3224 3225
3178 3178 3178 3178 3179 3180 3182 3182 3183 3184 3185 3187 3189 3190 3190 3191 3192 3193 3194 3195 3196 3197 3197 3198 3199 3200 3201 3202 3203 3204 3205 3206 3207 3209 3211 3212 3213 3213 3214 3215 3217 3218 3219 3219 3218 3218 3218 3218 3218 3218 3218 3218 3218 3218 3217 3217 3217 3217 3217 3216 3216 3215 3214 3213 3213 3212 3211 3211 3210 3211 3211 3212 3213 3212 3213 3215 3216 3217 3218 3220 3221 3222 3222 3223 3224
3177 3178 3178 3179 3179 3180 3182 3183 3183 3184 3185 3186 3188 3189 3190 3191 3192 3193 3194 3195 3196 3197 3198 3198 3199 3201 3202 3203 3204 3205 3206 3207 3209 3210 3211 3212 3213 3213 3214 3215 3218 3219 3219 3218 3218 3218 3218 3218 3219 3218 3218 3219 3218 3217 3217 3217 3217 3217 3217 3216 3215 3214 3214 3213 3213 3212 3211 3211 3210 3210 3210 3209 3209 3210 3211 3213 3214 3215 3216 3218 3219 3220 3221 3222 3223
3176 3177 3178 3179 3179 3180 3181 3183 3184 3184 3186 3187 3188 3189 3190 3191 3192 3193 3194 3195 3196 3198 3198 3199 3200 3202 3203 3204 3205 3206 3207 3208 3210 3211 3212 3212 3213 3214 3215 3216 3218 3218 3218 3218 3218 3219 3219 3219 3219 3219 3219 3219 3218 3218 3217 3218 3217 3217 3217 3216 3215 3214 3214 3213 3212 3212 3211 3210 3210 3209 3209 3208 3208 3208 3210 3211 3212 3213 3214 3215 3216 3218 3219 3220 3221
3176 3177 3178 3179 3179 3179 3181 3183 3185 3186 3187 3188 3189 3190 3191 3192 3193 3194 3194 3196 3197 3198 3199 3200 3201 3203 3204 3204 3205 3206 3207 3208 3210 3211 3213 3214 3214 3215 3216 3217 3218 3218 3219 3219 3219 3219 3220 3220 3220 3220 3220 3219 3219 3219 3218 3218 3217 3216 3216 3215 3215 3214 3213 3213 3212 3211 3210 3209 3209 3209 3208 3207 3207 3207 3208 3210 3210 3211 3212 3213 3214 3216 3217 3218 3220
3176 3178 3178 3179 3179 3179 3180 3182 3185 3186 3187 3188 3190 3191 3192 3192 3194 3195 3195 3196 3197 3199 3200 3201 3202 3203 3204 3205 3205 3206 3207 3209 3211 3212 3214 3215 3216 3217 3217 3217 3217 3218 3219 3220 3220 3220 3220 3221 3221 3221 3220 3220 3220 3220 3219 3218 3217 3216 3215 3215 3215 3214 3213 3212 3211 3210 3208 3207 3208 3208 3207 3207 3206 3207 3207 3208 3209 3210 3211 3212 3213 3214 3215 3217 3218
3176 3177 3178 3179 3180 3180 3180 3181 3184 3186 3187 3188 3190 3191 3193 3193 3195 3196 3196 3197 3198 3199 3200 3201 3202 3203 3204 3205 3206 3207 3208 3210 3212 3214 3215 3217 3217 3217 3217 3217 3218 3218 3220 3221 3221 3221 3221 3221 3221 3221 3221 3221 3221 3220 3219 3218 3217 3216 3215 3215 3215 3214 3213 3212 3211 3209 3207 3206 3207 3206 3205 3206 3206 3206 3206 3207 3208 3208 3209 3210 3211 3213 3214 3215 3216
3175 3177 3178 3179 3180 3180 3181 3181 3183 3185 3188 3189 3190 3191 3193 3194 3195 3196 3197 3198 3199 3199 3201 3202 3204 3205 3206 3207 3208 3209 3210 3212 3213 3215 3216 3217 3217 3217 3216 3217 3218 3219 3220 3221 3221 3222 3222 3222 3221 3221 3221 3221 3221 3221 3220 3218 3217 3216 3216 3215 3215 3215 3213 3212 3210 3209 3207 3204 3205 3205 3204 3206 3206 3205 3205 3206 3206 3208 3209 3209 3210 3211 3212 3213 3214
3176 3176 3178 3179 3180 3180 3181 3181 3182 3185 3188 3190 3190 3191 3193 3194 3195 3197 3197 3199 3200 3201 3203 3204 3205 3207 3208 3208 3209 3210 3211 3212 3213 3215 3215 3216 3217 3217 3217 3217 3218 3219 3220 3221 3221 3222 3223 3223 3222 3222 3222 3222 3221 3221 3220 3218 3218 3217 3216 3216 3216 3215 3213 3212 3210 3209 3208 3204 3204 3206 3207 3208 3207 3205 3205 3205 3206 3207 3207 3207 3208 3209 3209 3210 3212
3176 3177 3178 3178 3179 3180 3181 3182 3182 3184 3186 3189 3191 3192 3193 3194 3195 3197 3198 3200 3201 3203 3204 3205 3206 3208 3208 3209 3210 3210 3211 3212 3213 3214 3215 3216 3217 3217 3217 3218 3218 3219 3220 3221 3222 3223 3223 3223 3223 3223 3222 3222 3221 3221 3220 3218 3218 3218 3217 3216 3215 3214 3213 3211 3210 3208 3208 3206 3206 3207 3207 3208 3207 3205 3205 3206 3206 3206 3205 3205 3205 3206 3207 3208 3209
3176 3177 3178 3179 3179 3180 3181 3182 3183 3184 3185 3187 3191 3194 3196 3196 3197 3198 3199 3201 3202 3203 3205 3205 3207 3208 3209 3209 3210 3210 3211 3212 3213 3214 3214 3215 3216 3216 3218 3218 3219 3219 3220 3221 3222 3224 3224 3224 3223 3222 3222 3222 3221 3221 3220 3219 3219 3219 3217 3216 3215 3213 3212 3210 3209 3208 3207 3207 3207 3207 3206 3206 3206 3205 3205 3206 3206 3205 3204 3204 3204 3205 3205 3206 3207
3175 3176 3178 3179 3179 3180 3181 3182 3183 3185 3186 3187 3189 3193 3196 3197 3198 3199 3200 3202 3203 3203 3204 3205 3206 3208 3208 3210 3211 3211 3212 3212 3212 3214 3215 3215 3216 3217 3218 3220 3221 3221 3221 3221 3223 3224 3224 3223 3222 3222 3222 3221 3220 3220 3220 3220 3220 3219 3217 3216 3215 3213 3211 3209 3208 3207 3207 3207 3207 3207 3205 3204 3204 3204 3204 3205 3205 3204 3203 3203 3203 3204 3204 3205 3205
3175 3176 3178 3179 3179 3180 3182 3183 3184 3185 3187 3188 3189 3191 3193 3195 3197 3199 3200 3202 3204 3204 3205 3206 3207 3208 3209 3211 3212 3213 3213 3212 3212 3214 3215 3216 3217 3218 3219 3221 3222 3222 3222 3222 3222 3223 3223 3223 3223 3223 3222 3220 3220 3220 3220 3220 3219 3219 3217 3216 3215 3213 3210 3208 3208 3207 3207 3206 3206 3205 3204 3203 3202 3202 3202 3202 3203 3203 3202 3202 3202 3203 3203 3203 3204
3175 3176 3177 3179 3180 3181 3182 3183 3185 3186 3187 3189 3190 3191 3192 3194 3196 3198 3199 3202 3204 3204 3204 3205 3205 3207 3209 3210 3212 3212 3212 3212 3213 3214 3216 3217 3218 3219 3220 3221 3222 3222 3223 3222 3222 3221 3221 3222 3223 3223 3220 3218 3219 3219 3219 3219 3219 3218 3217 3216 3214 3212 3209 3208 3207 3207 3207 3206 3205 3204 3203 3202 3201 3201 3201 3201 3202 3202 3201 3201 3201 3201 3201 3202 3203
3174 3175 3177 3178 3179 3181 3182 3183 3185 3186 3188 3189 3190 3192 3193 3195 3196 3198 3199 3200 3202 3203 3203 3203 3204 3207 3208 3209 3210 3211 3211 3212 3213 3215 3216 3217 3218 3219 3220 3221 3222 3222 3223 3223 3223 3222 3221 3221 3221 3220 3218 3216 3217 3219 3219 3218 3218 3217 3217 3216 3214 3211 3208 3206 3206 3207 3207 3206 3205 3203 3202 3201 3200 3200 3200 3200 3200 3200 3200 3199 3200 3200 3201 3201 3202
3173 3175 3176 3177 3179 3180 3182 3183 3185 3186 3187 3189 3190 3192 3193 3195 3196 3198 3199 3200 3201 3202 3203 3204 3205 3206 3207 3208 3210 3211 3211 3213 3214 3215 3216 3217 3218 3219 3220 3221 3221 3222 3222 3223 3223 3223 3223 3222 3221 3220 3219 3217 3216 3219 3220 3218 3218 3217 3216 3215 3213 3211 3208 3207 3207 3209 3208 3206 3205 3203 3201 3200 3200 3201 3200 3200 3200 3200 3199 3199 3200 3200 3199 3200 3200
3172 3174 3175 3177 3178 3180 3182 3183 3184 3186 3187 3188 3190 3191 3193 3194 3196 3197 3199 3200 3201 3202 3203 3204 3205 3206 3207 3208 3209 3210 3211 3212 3214 3215 3216 3217 3218 3219 3219 3220 3220 3221 3222 3222 3222 3222 3223 3223 3222 3221 3221 3219 3216 3217 3219 3218 3217 3216 3214 3214 3212 3211 3209 3208 3208 3209 3207 3205 3205 3203 3202 3202 3201 3201 3200 3200 3199 3199 3199 3198 3199 3200 3199 3199 3199
3173 3173 3175 3176 3178 3179 3181 3182 3184 3185 3186 3187 3189 3191 3192 3194 3195 3197 3198 3199 3200 3201 3202 3203 3204 3205 3206 3208 3208 3209 3211 3212 3214 3215 3216 3216 3217 3218 3218 3219 3220 3220 3221 3222 3222 3222 3222 3222 3222 3221 3221 3221 3218 3217 3216 3217 3217 3215 3213 3213 3212 3211 3210 3208 3208 3207 3206 3205 3204 3204 3204 3203 3202 3201 3200 3199 3199 3199 3199 3199 3199 3199 3199 3199 3199
3174 3174 3175 3176 3177 3179 3180 3181 3183 3184 3185 3187 3188 3190 3191 3193 3195 3196 3197 3199 3199 3200 3201 3202 3203 3204 3205 3207 3208 3209 3210 3212 3213 3215 3215 3216 3217 3218 3218 3218 3219 3220 3220 3221 3221 3221 3221 3221 3221 3221 3221 3221 3220 3217 3214 3215 3215 3211 3212 3213 3211 3210 3209 3209 3209 3207 3207 3206 3205 3205 3204 3203 3202 3201 3200 3199 3198 3199 3199 3199 3199 3199 3199 3199 3199
3174 3174 3175 3176 3177 3178 3179 3180 3182 3183 3185 3186 3188 3189 3191 3192 3194 3195 3196 3198 3198 3199 3200 3201 3203 3203 3204 3206 3207 3208 3209 3211 3212 3214 3215 3215 3216 3217 3217 3218 3218 3219 3219 3220 3220 3220 3220 3220 3221 3221 3221 3220 3220 3218 3215 3214 3213 3210 3213 3214 3212 3210 3207 3208 3210 3208 3207 3206 3204 3204 3204 3203 3202 3201 3200 3199 3198 3199 3199 3199 3200 3199 3199 3198 3198
3173 3174 3175 3176 3176 3178 3179 3180 3181 3183 3184 3186 3187 3189 3190 3191 3193 3194 3195 3197 3197 3198 3200 3201 3202 3202 3203 3205 3206 3206 3208 3210 3211 3213 3214 3214 3215 3216 3217 3217 3218 3218 3219 3219 3219 3219 3219 3220 3220 3220 3220 3220 3219 3218 3215 3214 3213 3212 3215 3215 3214 3212 3209 3208 3210 3209 3208 3206 3205 3204 3203 3203 3202 3201 3200 3199 3199 3199 3199 3199 3199 3199 3199 3198 3198
3173 3173 3174 3175 3176 3177 3178 3179 3181 3182 3184 3185 3187 3188 3190 3191 3192 3194 3195 3196 3197 3198 3199 3200 3201 3202 3202 3204 3205 3205 3207 3209 3210 3211 3212 3213 3214 3215 3216 3216 3217 3217 3218 3218 3218 3218 3218 3219 3219 3219 3219 3219 3219 3218 3217 3215 3214 3214 3216 3216 3215 3214 3212 3210 3210 3209 3208 3207 3206 3205 3204 3203 3202 3201 3200 3200 3200 3200 3199 3199 3199 3200 3199 3198 3198
3172 3173 3174 3175 3176 3177 3178 3179 3180 3182 3183 3185 3186 3188 3189 3191 3192 3193 3194 3195 3196 3197 3198 3199 3200 3201 3201 3203 3204 3205 3206 3208 3209 3210 3211 3212 3213 3214 3214 3215 3216 3216 3217 3217 3217 3217 3218 3218 3218 3218 3218 3219 3218 3218 3217 3216 3215 3215 3216 3217 3216 3215 3214 3214 3212 3211 3210 3208 3208 3207 3205 3204 3204 3203 3202 3201 3201 3200 3200 3199 3199 3200 3199 3198 3198
3172 3173 3174 3175 3175 3176 3177 3179 3180 3181 3183 3184 3186 3187 3189 3190 3191 3192 3193 3194 3195 3196 3197 3198 3200 3200 3201 3202 3203 3204 3205 3206 3208 3209 3210 3211 3211 3212 3213 3214 3214 3215 3215 3215 3216 3217 3217 3217 3217 3217 3217 3218 3218 3218 3217 3217 3216 3216 3216 3216 3216 3216 3215 3215 3214 3213 3211 3210 3209 3209 3208 3206 3205 3205 3203 3202 3202 3201 3201 3200 3200 3200 3199 3198 3197
3171 3172 3173 3174 3175 3176 3177 3178 3179 3181 3182 3184 3185 3186 3187 3189 3190 3191 3192 3193 3195 3195 3196 3198 3199 3200 3200 3201 3202 3203 3204 3205 3206 3207 3208 3209 3210 3211 3212 3212 3213 3214 3214 3214 3215 3216 3216 3216 3216 3216 3217 3217 3217 3217 3217 3217 3216 3216 3216 3215 3215 3216 3216 3216 3215 3214 3212 3211 3210 3209 3209 3207 3207 3206 3204 3203 3202 3202 3201 3201 3200 3200 3199 3198 3198
3171 3172 3173 3174 3175 3175 3176 3178 3179 3180 3181 3183 3184 3185 3186 3187 3188 3190 3191 3192 3193 3194 3195 3197 3198 3199 3199 3200 3202 3203 3204 3204 3205 3206 3207 3208 3209 3209 3210 3211 3212 3212 3213 3213 3214 3215 3215 3215 3215 3215 3216 3216 3216 3216 3216 3216 3216 3216 3216 3216 3215 3215 3216 3216 3216 3214 3213 3212 3210 3210 3209 3208 3207 3206 3204 3203 3202 3202 3201 3202 3201 3200 3199 3199 3198
3170 3171 3172 3173 3174 3175 3176 3177 3178 3179 3180 3182 3183 3184 3185 3186 3188 3189 3190 3192 3193 3194 3195 3196 3197 3198 3199 3199 3200 3201 3202 3203 3204 3205 3206 3206 3207 3208 3209 3210 3211 3211 3212 3212 3213 3213 3214 3214 3214 3214 3215 3215 3215 3216 3216 3215 3216 3216 3216 3216 3216 3216 3216 3216 3216 3215 3214 3212 3210 3210 3209 3208 3208 3207 3206 3205 3204 3203 3202 3202 3202 3201 3200 3199 3198
3168 3170 3171 3172 3173 3174 3175 3176 3178 3178 3180 3181 3182 3183 3184 3186 3187 3188 3190 3191 3192 3193 3194 3195 3196 3197 3198 3198 3199 3200 3201 3202 3203 3204 3204 3205 3206 3207 3208 3209 3209 3210 3210 3211 3211 3212 3213 3213 3213 3213 3214 3214 3214 3215 3215 3215 3215 3216 3216 3216 3216 3216 3216 3216 3215 3215 3214 3212 3210 3210 3210 3209 3208 3208 3208 3207 3206 3205 3203 3203 3203 3202 3201 3200 3199
3167 3169 3170 3171 3172 3173 3174 3176 3177 3178 3179 3180 3181 3182 3183 3185 3186 3187 3189 3190 3191 3192 3193 3194 3195 3195 3196 3197 3197 3198 3199 3200 3201 3202 3203 3204 3205 3206 3207 3208 3208 3209 3209 3210 3210 3211 3211 3212 3212 3213 3213 3213 3213 3214 3214 3214 3215 3215 3215 3215 3215 3216 3215 3215 3215 3214 3213 3212 3210 3210 3210 3209 3208 3208 3208 3207 3207 3207 3204 3204 3206 3205 3202 3201 3200
3166 3168 3169 3170 3171 3172 3173 3175 3176 3177 3178 3179 3180 3181 3183 3184 3185 3186 3188 3189 3190 3191 3192 3193 3193 3194 3195 3196 3196 3197 3197 3199 3200 3201 3202 3202 3203 3205 3206 3206 3207 3207 3208 3208 3209 3210 3210 3210 3211 3212 3212 3212 3212 3213 3213 3214 3214 3214 3214 3215 3215 3215 3214 3214 3214 3213 3213 3212 3210 3210 3210 3209 3209 3209 3209 3208 3207 3207 3206 3205 3207 3206 3203 3202 3201
3165 3167 3168 3169 3170 3171 3172 3174 3175 3176 3177 3178 3179 3180 3182 3183 3184 3186 3187 3188 3189 3190 3191 3192 3192 3193 3195 3195 3196 3196 3197 3198 3199 3199 3200 3201 3202 3203 3204 3205 3205 3206 3206 3207 3208 3208 3208 3209 3210 3210 3211 3211 3211 3212 3212 3213 3213 3213 3213 3214 3214 3214 3213 3213 3213 3212 3212 3212 3211 3210 3209 3209 3210 3210 3209 3209 3208 3207 3207 3206 3206 3205 3203 3202 3201
3163 3165 3167 3168 3169 3170 3171 3173 3174 3175 3176 3177 3178 3180 3181 3182 3183 3185 3186 3187 3188 3189 3190 3191 3192 3193 3193 3194 3195 3195 3196 3197 3198 3199 3199 3200 3200 3201 3202 3203 3203 3204 3205 3206 3206 3206 3207 3207 3208 3209 3209 3210 3210 3210 3211 3211 3212 3212 3212 3212 3213 3213 3213 3213 3212 3210 3210 3211 3211 3210 3209 3209 3209 3209 3209 3209 3208 3207 3207 3207 3205 3204 3203 3203 3202